Tracking 31011 objects as of 13-Jul-2025
HD Live streaming from Space Station
objects crossing your sky now

CZ-6A DEB

Track CZ-6A DEB now!
10-day predictions


NORAD ID: 54543
Int'l Code: 2022-151KT
Perigee: 654.0 km
Apogee: 816.0 km
Inclination: 98.8 °
Period: 99.4 minutes
Semi major axis: 7106 km
RCS: Unknown
Launch date: November 11, 2022
Source: People's Republic of China (PRC)
Launch site: Taiyaun Space Center, China (TSC)

Note: This is SATELLITE DEBRIS
Your satellite tracking list
Your tracking list is empty




NASA's NSSDC Master Catalog

Two Line Element Set (TLE):
1 54543U 22151KT  25193.89014053  .00001703  00000-0  42391-3 0  9995
2 54543  98.7694 251.1412 0114034 264.7179  94.0993 14.49319004140320
Source of the keplerian elements: AFSPC